Location: Kuffner-Sternwarte
(48.2130°N, 16.2960°E)
Time: 02:44:29
(UTC+02:00)

COROT - Pass Details

Date: 24 March 2017
Orbit: 601 x 889 km, 90.0° (Epoch: 19 July)

Event Time Altitude Azimuth Distance (km) Brightness Sun altitude
Rises 01:46:04 0° 350° (N) 3,053 9.7 -35.4°
Reaches altitude 10° 01:48:35 10° 337° (NNW) 2,179 8.7 -35.2°
Enters shadow 01:48:57 12° 335° (NNW) 2,067 8.5 -35.1°
